C/2011 KP36 ( Spacewatch )

Japanese version
Home page
Updated on May 18, 2012

---------------------------------------------------------------------

* Profile

Discovery Date May 21, 2011
Magnitude 20.4 mag
Discoverer T. H. Bressi (Kitt Peak)

* Pictures

* Orbital Elements

Epoch 2016 May 12.0 TT = JDT 2457520.5
T 2016 May 27.90578 TT                                  MPC
q   4.8856950            (2000.0)            P               Q
z  +0.0261766      Peri.  180.60076     +0.99446842     +0.09816614
 +/-0.0000000      Node   173.40584     -0.09496083     +0.99229345
e   0.8721094      Incl.   18.98722     -0.04488879     +0.07561168
From 92 observations 2011 May 21-2012 May 17, mean residual 0".3.

* Finding Charts

* Magnitudes Graph

        m1 = 4.0 + 5 log d + 10.0 log r

---------------------------------------------------------------------

The orbital elements are published on M.P.E.C. 2012-K12.
The charts are made with StellaNavigator Ver.8 (AstroArts).
The magnitudes graphs are made with Comet for Windows.

---------------------------------------------------------------------

Copyright(C) Seiichi Yoshida (comet@aerith.net). All rights reserved.